Content
SEND FEEDBACK

Daily
Averages
Monthly
Summary
United States of America

FORT YUKON, ALASKA


Home > North America > United States > Alaska
Elevation: 433 feet     Latitude: 66 34N     Longitude: 145 15W

WEATHER
 
SELECT A DAY
Number of Records: 408,527;   Date Range: 1/1/95 - 12/19/14
 
SHARE

PRINT THIS DATA

[ ← Previous Day ]
WEATHER ALMANAC - JANUARY 31, 2013
[ Next Day → ]
[ °C ]   °F
Weather ElementAverageHighLow
Temperature-5.2 °F-2.2 °F (12:36 pm)-7.6 °F (12:36 am)
Dewpoint-11.4 °F-9.4 °F (8:56 am)-16.6 °F (12:36 am)
Humidity74.7 %84 % (12:56 am)65 % (12:36 am)
Barometer29.91 in30.07 in (11:56 pm)29.82 in (5:56 am)
Wind Speed0.4 mph5.8 mph (12:36 am)
Weather ElementAverage
Visibility5.5 mi
Wind DirectionNNE (19.7 °)

Weather ElementTotal
Precipitation---
Heating Degree Days69.9 (Base 65)
Averaged from 70 records on January 31, 2013
WEATHER CONDITIONS BREAKOUT
WIND DIRECTION BREAKOUT
WEATHER BY HOUR - JANUARY 31, 2013
[ °C ]   °F
Local TimeTemperatureDewpointHumidityBarometerVisibilityWind DirectionWind SpeedGust SpeedPrecipitationEventsConditions
12:36 AM-7.6 °F-16.6 °F65 %29.85 in2.5 miNE (40°)5.8 mphOvercast
12:56 AM-7.6 °F-11.2 °F84 %29.85 in2.0 miNE (40°)3.5 mphOvercast
1:16 AM-7.6 °F-16.6 °F65 %29.85 in2.0 miCalmOvercast
1:36 AM-7.6 °F-13.0 °F77 %29.85 in1.8 miCalmOvercast
1:56 AM-7.6 °F-14.8 °F71 %29.85 in2.5 miCalmOvercast
2:16 AM-7.6 °F-11.2 °F84 %29.85 in2.0 miCalmOvercast
2:36 AM-7.6 °F-14.8 °F71 %29.85 in2.0 miCalmOvercast
2:56 AM-7.6 °F-14.8 °F71 %29.85 in1.5 miCalmOvercast
3:16 AM-7.6 °F-13.0 °F77 %29.85 in2.0 miCalmOvercast
3:36 AM-7.6 °F-13.0 °F77 %29.85 in2.0 miCalmOvercast
3:56 AM-7.6 °F-13.0 °F77 %29.85 in1.5 miCalmOvercast
4:16 AM-7.6 °F-13.0 °F77 %29.84 in2.0 miCalmOvercast
4:36 AM-7.6 °F-11.2 °F84 %29.84 in1.5 miCalmOvercast
4:56 AM-5.8 °F-13.0 °F71 %29.84 in1.5 miCalmOvercast
5:16 AM-5.8 °F-11.2 °F77 %29.83 in2.0 miCalmOvercast
5:36 AM-5.8 °F-11.2 °F77 %29.83 in5.0 miCalmOvercast
5:56 AM-5.8 °F-11.2 °F77 %29.82 in2.0 miCalmOvercast
6:16 AM-5.8 °F-11.2 °F77 %29.83 in2.5 miCalmOvercast
6:36 AM-5.8 °F-11.2 °F77 %29.83 in2.0 miCalmOvercast
6:56 AM-5.8 °F-11.2 °F77 %29.83 in8.0 miCalmMostly Cloudy
7:16 AM-5.8 °F-11.2 °F77 %29.84 in10.0 miCalmOvercast
7:36 AM-5.8 °F-13.0 °F71 %29.84 in3.0 miCalmMostly Cloudy
7:56 AM-5.8 °F-11.2 °F77 %29.84 in1.8 miCalmOvercast
8:16 AM-5.8 °F-11.2 °F77 %29.84 in3.0 miCalmOvercast
8:36 AM-5.8 °F-11.2 °F77 %29.84 in3.0 miCalmOvercast
8:56 AM-4.0 °F-9.4 °F78 %29.85 in1.8 miCalmOvercast
9:16 AM-5.8 °F-11.2 °F77 %29.85 in1.5 miCalmOvercast
9:36 AM-5.8 °F-9.4 °F84 %29.85 in1.5 miCalmOvercast
9:56 AM-5.8 °F-11.2 °F77 %29.86 in1.5 miCalmOvercast
10:16 AM-5.8 °F-11.2 °F77 %29.86 in1.5 miCalmOvercast
10:36 AM-5.8 °F-9.4 °F84 %29.86 in3.0 miCalmOvercast
10:56 AM-5.8 °F-11.2 °F77 %29.86 in3.0 miCalmOvercast
11:16 AM-4.0 °F-9.4 °F78 %29.87 in3.0 miCalmOvercast
11:36 AM-4.0 °F-11.2 °F71 %29.88 in3.0 miCalmOvercast
11:56 AM-4.0 °F-11.2 °F71 %29.88 in3.0 miCalmOvercast
12:16 PM-4.0 °F-11.2 °F71 %29.88 in7.0 miCalmMostly Cloudy
12:36 PM-2.2 °F-9.4 °F71 %29.89 in7.0 miCalmOvercast
12:56 PM-2.2 °F-11.2 °F66 %29.90 in7.0 miCalmOvercast
1:16 PM-2.2 °F-11.2 °F66 %29.90 in10.0 miCalmOvercast
1:36 PM-2.2 °F-11.2 °F66 %29.90 in10.0 miCalmOvercast
1:56 PM-2.2 °F-9.4 °F71 %29.91 in10.0 miCalmOvercast
2:16 PM-2.2 °F-9.4 °F71 %29.91 in4.0 miCalmOvercast
2:36 PM-2.2 °F-9.4 °F71 %29.92 in8.0 miWest (270°)4.6 mphOvercast
2:56 PM-2.2 °F-9.4 °F71 %29.92 in10.0 miWest (270°)3.5 mphOvercast
3:16 PM-2.2 °F-9.4 °F71 %29.93 in4.0 miWest (270°)3.5 mphOvercast
3:36 PM-2.2 °F-9.4 °F71 %29.93 in7.0 miCalmOvercast
3:56 PM-2.2 °F-9.4 °F71 %29.94 in9.0 miCalmOvercast
4:16 PM-2.2 °F-11.2 °F66 %29.95 in10.0 miWest (260°)3.5 mphOvercast
4:36 PM-2.2 °F-9.4 °F71 %29.95 in10.0 miCalmOvercast
4:56 PM-2.2 °F-9.4 °F71 %29.95 in10.0 miCalmOvercast
5:16 PM-2.2 °F-9.4 °F71 %29.96 in10.0 miCalmOvercast
5:36 PM-4.0 °F-11.2 °F71 %29.96 in10.0 miCalmOvercast
5:56 PM-4.0 °F-9.4 °F78 %29.97 in10.0 miCalmOvercast
6:16 PM-5.8 °F-11.2 °F77 %29.97 in10.0 miCalmPartly Cloudy
6:36 PM-5.8 °F-11.2 °F77 %29.99 in10.0 miSW (230°)3.5 mphScattered Clouds
6:56 PM-5.8 °F-11.2 °F77 %29.99 in10.0 miCalmScattered Clouds
7:16 PM-5.8 °F-13.0 °F71 %29.99 in10.0 miCalmPartly Cloudy
7:36 PM-7.6 °F-11.2 °F84 %30.00 in10.0 miCalmClear
8:16 PM-5.8 °F-9.4 °F84 %30.01 in10.0 miCalmOvercast
8:36 PM-5.8 °F-13.0 °F71 %30.01 in10.0 miCalmOvercast
8:56 PM-5.8 °F-11.2 °F77 %30.02 in5.0 miCalmOvercast
9:16 PM-5.8 °F-11.2 °F77 %30.02 in3.0 miCalmOvercast
9:36 PM-5.8 °F-9.4 °F84 %30.03 in5.0 miCalmMostly Cloudy
9:56 PM-5.8 °F-13.0 °F71 %30.03 in7.0 miCalmMostly Cloudy
10:16 PM-5.8 °F-11.2 °F77 %30.04 in5.0 miCalmMostly Cloudy
10:36 PM-5.8 °F-9.4 °F84 %30.04 in10.0 miCalmMostly Cloudy
10:56 PM-5.8 °F-14.8 °F65 %30.05 in8.0 miCalmOvercast
11:16 PM-5.8 °F-11.2 °F77 %30.05 in7.0 miCalmOvercast
11:36 PM-5.8 °F-11.2 °F77 %30.06 in10.0 miCalmOvercast
11:56 PM-5.8 °F-14.8 °F65 %30.07 in7.0 miCalmOvercast
Hourly data recorded from PFYU, located miles away from Fort Yukon, Alaska







STORIES FROM OUR PARTNERS